Olney-Noble, IL

2:58 AM CDT on May 27, 2017 (GMT -0500)
Olney-Noble

Weather History for KOLY - November, 2013

Change the Weather History Date:

Sunday, November 24, 2013

  Actual Average (KEVV) Record (KEVV)
Temperature  
Mean Temperature 22 °F -  
Max Temperature 28 °F 49 °F 70 °F (1966)
Min Temperature 15 °F 33 °F -1 °F (1950)
Degree Days  
Heating Degree Days 44    
Moisture  
Dew Point 12 °F    
Average Humidity 66    
Maximum Humidity 86    
Minimum Humidity 43    
Precipitation  
Precipitation 0.00 in - - ()
Sea Level Pressure  
Sea Level Pressure 30.65 in    
Wind  
Wind Speed 4 mph (NNW)    
Max Wind Speed 9 mph    
Max Gust Speed 17 mph    
Visibility 10 miles    
Events      
Averages and records for this station are not official NWS values.
T = Trace of Precipitation, MM = Missing Value Source: NWS Daily Summary

Daily Weather History Graph

Daily Weather History Graph

Search for Another Location

Airport or City:

Trip Planner

Search our weather history database for the weather conditions in past years. The results will help you decide how hot, cold, wet, or windy it might be!

Date:

Astronomy

Nov. 24, 2013 Rise Set
Actual Time 6:44 AM CST 4:33 PM CST
Civil Twilight 6:15 AM CST 5:02 PM CST
Nautical Twilight 5:43 AM CST 5:35 PM CST
Astronomical Twilight 5:11 AM CST 6:07 PM CST
Moon 10:57 PM CST (11/24) 11:34 AM CST (11/24)
Length of Visible Light 10h 46m
Length of Day
9h 48m
Waning Gibbous, 60% of the Moon is Illuminated
Nov 24
Waning Gibbous
Nov 25
Last Quarter
Dec 2
New
Dec 9
First Quarter
Dec 17
Full

Hourly Weather History & Observations

Time (CST) Temp. Windchill Dew Point Humidity Pressure Visibility Wind Dir Wind Speed Gust Speed Precip Events Conditions
12:15 AM 19.4 °F 9.5 °F 8.6 °F 63% 30.68 in 10.0 mi North 8.1 mph 17.3 mph N/A   Clear
12:35 AM 19.4 °F 8.6 °F 8.6 °F 63% 30.68 in 10.0 mi North 9.2 mph - N/A   Clear
12:55 AM 19.4 °F 8.6 °F 8.6 °F 63% 30.68 in 10.0 mi North 9.2 mph - N/A   Clear
1:15 AM 19.4 °F 11.5 °F 8.6 °F 63% 30.68 in 10.0 mi North 5.8 mph - N/A   Clear
1:35 AM 19.4 °F 9.5 °F 8.6 °F 63% 30.68 in 10.0 mi North 8.1 mph - N/A   Clear
1:55 AM 19.4 °F 11.5 °F 8.6 °F 63% 30.69 in 10.0 mi North 5.8 mph - N/A   Clear
2:15 AM 17.6 °F 9.3 °F 8.6 °F 68% 30.69 in 10.0 mi North 5.8 mph - N/A   Clear
2:35 AM 17.6 °F 8.2 °F 8.6 °F 68% 30.69 in 10.0 mi NNW 6.9 mph - N/A   Clear
2:55 AM 17.6 °F 9.3 °F 8.6 °F 68% 30.69 in 10.0 mi NNW 5.8 mph - N/A   Clear
3:15 AM 17.6 °F - 8.6 °F 68% 30.70 in 10.0 mi Calm Calm - N/A   Clear
3:35 AM 17.6 °F 10.7 °F 10.4 °F 73% 30.70 in 10.0 mi NNW 4.6 mph - N/A   Clear
3:55 AM 17.6 °F - 8.6 °F 68% 30.70 in 10.0 mi Calm Calm - N/A   Clear
4:15 AM 17.6 °F - 8.6 °F 68% 30.70 in 10.0 mi Calm Calm - N/A   Clear
4:35 AM 17.6 °F 12.3 °F 10.4 °F 73% 30.70 in 10.0 mi North 3.5 mph - N/A   Clear
4:55 AM 17.6 °F 12.3 °F 8.6 °F 68% 30.70 in 10.0 mi North 3.5 mph - N/A   Clear
5:15 AM 17.6 °F - 10.4 °F 73% 30.71 in 10.0 mi Calm Calm - N/A   Clear
5:35 AM 15.8 °F - 10.4 °F 79% 30.71 in 10.0 mi Calm Calm - N/A   Clear
5:55 AM 15.8 °F - 10.4 °F 79% 30.71 in 10.0 mi Calm Calm - N/A   Clear
6:15 AM 15.8 °F - 10.4 °F 79% 30.72 in 10.0 mi Calm Calm - N/A   Clear
6:35 AM 15.8 °F - 10.4 °F 79% 30.74 in 10.0 mi Calm Calm - N/A   Clear
6:55 AM 15.8 °F - 10.4 °F 79% 30.74 in 10.0 mi Calm Calm - N/A   Clear
7:15 AM 15.8 °F - 10.4 °F 79% 30.74 in 10.0 mi Calm Calm - N/A   Clear
7:35 AM 17.6 °F 8.2 °F 10.4 °F 73% 30.75 in 10.0 mi NNW 6.9 mph - N/A   Clear
7:55 AM 17.6 °F 8.2 °F 10.4 °F 73% 30.75 in 10.0 mi North 6.9 mph - N/A   Clear
8:15 AM 19.4 °F 9.5 °F 10.4 °F 68% 30.76 in 10.0 mi North 8.1 mph - N/A   Clear
8:35 AM 19.4 °F 11.5 °F 10.4 °F 68% 30.76 in 10.0 mi North 5.8 mph - N/A   Clear
8:55 AM 21.2 °F 13.6 °F 10.4 °F 63% 30.76 in 10.0 mi North 5.8 mph - N/A   Clear
9:15 AM 21.2 °F 14.9 °F 10.4 °F 63% 30.76 in 10.0 mi NNW 4.6 mph - N/A   Clear
9:35 AM 23.0 °F 14.7 °F 12.2 °F 63% 30.76 in 10.0 mi North 6.9 mph - N/A   Clear
9:55 AM 23.0 °F - 12.2 °F 63% 30.76 in 10.0 mi Calm Calm - N/A   Clear
10:15 AM 23.0 °F - 10.4 °F 59% 30.74 in 10.0 mi Calm Calm - N/A   Clear
10:35 AM 24.8 °F - 12.2 °F 59% 30.74 in 10.0 mi Calm Calm - N/A   Clear
10:55 AM 26.6 °F - 10.4 °F 51% 30.72 in 10.0 mi Calm Calm - N/A   Clear
11:15 AM 26.6 °F - 12.2 °F 55% 30.71 in 10.0 mi Calm Calm - N/A   Clear
11:35 AM 26.6 °F - 12.2 °F 55% 30.69 in 10.0 mi Calm Calm - N/A   Clear
11:55 AM 28.4 °F - 10.4 °F 47% 30.68 in 10.0 mi Calm Calm - N/A   Clear
12:15 PM 28.4 °F - 10.4 °F 47% 30.66 in 10.0 mi Calm Calm - N/A   Clear
12:35 PM 26.6 °F 22.6 °F 10.4 °F 51% 30.66 in 10.0 mi NW 3.5 mph - N/A   Clear
12:55 PM 28.4 °F 21.2 °F 10.4 °F 47% 30.64 in 10.0 mi NNW 6.9 mph - N/A   Clear
1:15 PM 28.4 °F - 8.6 °F 43% 30.64 in 10.0 mi Calm Calm - N/A   Clear
1:35 PM 28.4 °F 23.3 °F 8.6 °F 43% 30.63 in 10.0 mi NNW 4.6 mph - N/A   Clear
1:55 PM 28.4 °F 24.6 °F 8.6 °F 43% 30.62 in 10.0 mi NW 3.5 mph - N/A   Clear
2:15 PM 28.4 °F - 8.6 °F 43% 30.62 in 10.0 mi Calm Calm - N/A   Clear
2:35 PM 28.4 °F - 8.6 °F 43% 30.61 in 10.0 mi Calm Calm - N/A   Clear
2:55 PM 28.4 °F - 8.6 °F 43% 30.61 in 10.0 mi Calm Calm - N/A   Clear
3:15 PM 28.4 °F - 8.6 °F 43% 30.61 in 10.0 mi Calm Calm - N/A   Clear
3:35 PM 28.4 °F - 8.6 °F 43% 30.61 in 10.0 mi Calm Calm - N/A   Clear
3:55 PM 26.6 °F - 8.6 °F 47% 30.60 in 10.0 mi Calm Calm - N/A   Clear
4:15 PM 26.6 °F - 10.4 °F 51% 30.59 in 10.0 mi Calm Calm - N/A   Clear
4:35 PM 26.6 °F - 10.4 °F 51% 30.59 in 10.0 mi Calm Calm - N/A   Clear
4:55 PM 24.8 °F - 12.2 °F 59% 30.58 in 10.0 mi Calm Calm - N/A   Clear
5:15 PM 24.8 °F - 14.0 °F 64% 30.59 in 10.0 mi Calm Calm - N/A   Clear
5:35 PM 23.0 °F - 15.8 °F 74% 30.59 in 10.0 mi Calm Calm - N/A   Clear
5:55 PM 23.0 °F - 17.6 °F 80% 30.58 in 10.0 mi Calm Calm - N/A   Clear
6:15 PM 23.0 °F - 15.8 °F 74% 30.58 in 10.0 mi Calm Calm - N/A   Clear
6:35 PM 23.0 °F - 17.6 °F 80% 30.58 in 10.0 mi Calm Calm - N/A   Clear
6:55 PM 21.2 °F - 14.0 °F 74% 30.57 in 10.0 mi Calm Calm - N/A   Clear
7:15 PM 21.2 °F - 15.8 °F 80% 30.56 in 10.0 mi Calm Calm - N/A   Clear
7:35 PM 23.0 °F - 14.0 °F 68% 30.56 in 10.0 mi Calm Calm - N/A   Clear
7:55 PM 21.2 °F - 15.8 °F 80% 30.56 in 10.0 mi Calm Calm - N/A   Clear
8:15 PM 21.2 °F - 17.6 °F 86% 30.55 in 10.0 mi Calm Calm - N/A   Clear
8:35 PM 21.2 °F - 15.8 °F 80% 30.54 in 10.0 mi Calm Calm - N/A   Clear
8:55 PM 23.0 °F - 17.6 °F 80% 30.54 in 10.0 mi Calm Calm - N/A   Clear
9:15 PM 23.0 °F - 17.6 °F 80% 30.54 in 10.0 mi Calm Calm - N/A   Clear
9:35 PM 21.2 °F - 17.6 °F 86% 30.54 in 10.0 mi Calm Calm - N/A   Clear
9:55 PM 21.2 °F - 17.6 °F 86% 30.55 in 10.0 mi Calm Calm - N/A   Clear
10:15 PM 23.0 °F - 17.6 °F 80% 30.53 in 10.0 mi Calm Calm - N/A   Clear
10:35 PM 23.0 °F - 17.6 °F 80% 30.53 in 10.0 mi Calm Calm - N/A   Clear
10:55 PM 23.0 °F - 17.6 °F 80% 30.52 in 10.0 mi Calm Calm - N/A   Clear
11:15 PM 23.0 °F - 17.6 °F 80% 30.51 in 10.0 mi Calm Calm - N/A   Clear
11:35 PM 23.0 °F - 14.0 °F 68% 30.51 in 10.0 mi Calm Calm - N/A   Clear
11:55 PM 23.0 °F - 15.8 °F 74% 30.49 in 10.0 mi Calm Calm - N/A   Clear